Date,TemperatureHighF,TemperatureAvgF,TemperatureLowF,DewpointHighF,DewpointAvgF,DewpointLowF,HumidityHigh,HumidityAvg,HumidityLow,PressureMaxIn,PressureMinIn,WindSpeedMaxMPH,WindSpeedAvgMPH,GustSpeedMaxMPH,PrecipitationSumIn
2013-2-1,27,22,15,17,7,1,74,53,41,30.03,29.48,29,13,34,0.00
2013-2-2,24,18,10,14,6,0,78,59,40,30.18,30.01,12,4,18,0.00
2013-2-3,26,21,14,17,13,10,90,71,51,30.01,29.68,10,2,15,0.00
2013-2-4,27,21,15,17,5,-5,86,53,27,29.85,29.67,33,11,38,0.00
2013-2-5,25,16,6,11,1,-4,71,52,29,30.00,29.86,15,2,16,0.00
2013-2-6,35,23,16,21,11,-12,88,62,26,30.27,29.90,19,5,31,0.01
2013-2-7,22,16,9,3,-6,-12,52,37,22,30.52,30.27,18,5,22,0.00
2013-2-8,17,15,12,13,8,-4,86,74,39,30.49,29.83,23,8,30,0.00
2013-2-9,19,16,13,17,8,-1,90,72,50,30.17,29.75,23,8,29,0.00
2013-2-10,34,19,10,11,0,-7,78,45,23,30.37,30.17,17,5,24,0.09
2013-2-11,29,20,9,28,17,4,99,88,70,30.33,29.59,6,1,8,0.00
2013-2-12,42,35,28,31,28,24,100,76,56,29.78,29.56,23,9,33,0.34
2013-2-13,38,31,24,24,21,18,85,67,47,29.81,29.71,16,4,21,0.07
2013-2-14,38,28,20,24,20,17,91,73,46,29.96,29.68,18,2,21,0.01
2013-2-15,49,32,19,28,23,16,90,71,39,29.95,29.84,12,2,20,0.01
2013-2-16,37,32,25,26,19,4,82,60,40,29.92,29.73,14,5,18,0.00
2013-2-17,25,18,13,11,4,-1,76,53,39,29.72,29.37,30,12,40,0.00
2013-2-18,26,17,9,2,-4,-11,62,42,23,30.06,29.61,33,14,40,0.00
2013-2-19,38,27,13,33,11,-7,99,54,24,30.12,29.53,11,4,14,0.15
2013-2-20,33,29,20,33,21,12,100,73,55,29.69,29.46,25,11,29,0.03
2013-2-21,25,21,17,15,10,5,79,63,51,30.18,29.69,22,10,30,0.00
2013-2-22,38,28,17,22,18,14,90,67,41,30.40,30.21,13,2,19,0.00
2013-2-23,34,31,27,32,28,22,100,88,75,30.30,29.95,5,2,10,0.04
2013-2-24,33,31,29,32,30,28,100,98,95,29.94,29.74,4,0,5,0.02
2013-2-25,38,31,22,34,30,21,100,94,79,30.19,29.88,7,1,12,0.54
2013-2-26,39,34,30,34,30,27,100,86,71,30.32,30.18,10,2,13,0.41
2013-2-27,35,32,31,34,31,28,98,94,83,30.17,29.64,14,7,24,0.16
2013-2-28,44,35,31,36,33,29,100,92,69,29.63,29.50,7,1,12,0.65